tititudorancea.com
Station Historical Data
Daily Summary for November 30, 2018 Units:  Metric    English   Both
« Previous Day
Next Day »
Daily Weekly Monthly Yearly Custom
  High: Low: Average:
Temperature: -17.8 °C 10.5 °C 14.3 °C
Dew Point: -17.8 °C 6.6 °C 8.3 °C
Humidity: Humidity % 45 % 69 %
Wind Speed: 0 km/h 0 km/h 13.4 km/h
Wind Gust: 0 km/h - -
Wind:- - SW
Pressure: 0 hPa 1010.4 hPa -
Precipitation: 0 mm    
Historical Graphs
 
 
Ararat weather Find more about Weather in Ararat, AU


 



 


Tabular Data for November 30, 2018
Time Temperature Dew Point Pressure Wind Wind Speed Wind Gust Humidity Rainfall Rate (Hourly)
-17.8 °C -17.8 °C 0 hPa Calm     Humidity % 0 mm
00:04 11.1 °C 9 °C 1012.4 hPa SSW 18.5 km/h 8.4 km/h 87 % 0 mm
00:09 11.1 °C 9.1 °C 1012.4 hPa South 18.5 km/h 9.8 km/h 87 % 0 mm
00:14 11.1 °C 9 °C 1012.4 hPa SSW 18.5 km/h 11.6 km/h 87 % 0 mm
00:19 11 °C 8.9 °C 1012.1 hPa South 13 km/h 10.8 km/h 87 % 0 mm
00:24 11 °C 8.9 °C 1012.1 hPa SSW 16.7 km/h 13.2 km/h 87 % 0 mm
00:29 10.9 °C 8.8 °C 1012.1 hPa SSW 14.8 km/h 9.3 km/h 87 % 0 mm
00:34 10.9 °C 8.8 °C 1012.1 hPa SSW 13 km/h 11.1 km/h 87 % 0 mm
00:39 10.8 °C 8.8 °C 1012.1 hPa North 16.7 km/h 11.3 km/h 87 % 0 mm
00:44 10.9 °C 9 °C 1012.1 hPa North 16.1 km/h 11.4 km/h 88 % 0 mm
00:49 10.8 °C 8.9 °C 1012.1 hPa SSW 18.5 km/h 10.8 km/h 88 % 0 mm
00:54 10.8 °C 8.9 °C 1012.1 hPa SSW 18.5 km/h 12.6 km/h 88 % 0 mm
00:59 10.8 °C 8.9 °C 1012.1 hPa SSW 24.1 km/h 11.9 km/h 88 % 0 mm
01:04 10.8 °C 8.9 °C 1012.1 hPa SSW 18.5 km/h 10.1 km/h 88 % 0 mm
01:09 10.8 °C 8.9 °C 1012.1 hPa SSW 16.7 km/h 14.2 km/h 88 % 0 mm
01:14 10.8 °C 8.9 °C 1012.1 hPa SSW 9.7 km/h 6.8 km/h 88 % 0 mm
01:19 10.9 °C 9 °C 1011.7 hPa SSW 18.5 km/h 9.7 km/h 88 % 0 mm
01:24 10.9 °C 9.1 °C 1011.7 hPa SSW 16.7 km/h 12.6 km/h 88 % 0 mm
01:29 10.9 °C 9 °C 1011.7 hPa North 16.7 km/h 13 km/h 88 % 0 mm
01:34 10.9 °C 9 °C 1011.7 hPa North 16.7 km/h 11.9 km/h 88 % 0 mm
01:39 10.9 °C 9 °C 1011.7 hPa SSW 13 km/h 6.6 km/h 88 % 0 mm
01:44 10.8 °C 8.9 °C 1011.7 hPa SSW 14.8 km/h 10.1 km/h 88 % 0 mm
01:49 10.8 °C 8.9 °C 1011.7 hPa North 14.8 km/h 8.9 km/h 88 % 0 mm
01:54 10.7 °C 8.8 °C 1011.7 hPa SSW 11.1 km/h 7.4 km/h 88 % 0 mm
01:59 10.7 °C 9 °C 1011.7 hPa SSW 11.1 km/h 6 km/h 89 % 0 mm
02:04 10.7 °C 9 °C 1011.4 hPa North 16.7 km/h 6.6 km/h 89 % 0 mm
02:09 10.7 °C 9 °C 1011.4 hPa SSW 12.9 km/h 10.5 km/h 89 % 0 mm
02:14 10.7 °C 8.9 °C 1011.4 hPa SSW 14.8 km/h 6.3 km/h 89 % 0 mm
02:19 10.6 °C 8.9 °C 1011.4 hPa South 14.8 km/h 8.2 km/h 89 % 0 mm
02:24 10.6 °C 8.9 °C 1011.4 hPa SSW 13 km/h 9.3 km/h 89 % 0 mm
02:29 10.6 °C 8.9 °C 1011.4 hPa SSW 12.9 km/h 6.9 km/h 89 % 0 mm
02:34 10.6 °C 8.8 °C 1011.4 hPa SSW 11.3 km/h 10.8 km/h 89 % 0 mm
02:39 10.5 °C 8.8 °C 1011.4 hPa North 11.1 km/h 8.9 km/h 89 % 0 mm
02:44 10.5 °C 8.8 °C 1011.4 hPa North 11.1 km/h 7.7 km/h 89 % 0 mm
02:49 10.5 °C 8.9 °C 1011.4 hPa SSW 13 km/h 7.6 km/h 90 % 0 mm
02:54 10.5 °C 8.9 °C 1011.4 hPa SSW 9.7 km/h 9.2 km/h 90 % 0 mm
02:59 10.6 °C 9 °C 1011.1 hPa SSW 9.7 km/h 7.6 km/h 90 % 0 mm
03:04 10.6 °C 9.1 °C 1011.1 hPa SSW 16.7 km/h 6.6 km/h 90 % 0 mm
03:09 10.6 °C 9.1 °C 1011.1 hPa SSW 11.1 km/h 5.3 km/h 90 % 0 mm
03:14 10.6 °C 9.1 °C 1011.1 hPa SSW 11.1 km/h 8.4 km/h 90 % 0 mm
03:19 10.7 °C 9.1 °C 1011.1 hPa North 9.7 km/h 7.6 km/h 90 % 0 mm
03:24 10.7 °C 9.1 °C 1011.1 hPa North 9.3 km/h 7.1 km/h 90 % 0 mm
03:29 10.7 °C 9.2 °C 1011.1 hPa SSW 9.3 km/h 7.1 km/h 90 % 0 mm
03:34 10.7 °C 9.2 °C 1011.1 hPa North 11.1 km/h 8.9 km/h 90 % 0 mm
03:39 10.7 °C 9.2 °C 1010.7 hPa SSW 7.4 km/h 5.8 km/h 90 % 0 mm
03:44 10.7 °C 9.2 °C 1010.7 hPa SSW 13 km/h 9.2 km/h 90 % 0 mm
03:49 10.8 °C 9.2 °C 1010.7 hPa North 9.3 km/h 5.8 km/h 90 % 0 mm
03:54 10.7 °C 9.2 °C 1010.7 hPa SSW 7.4 km/h 5.1 km/h 90 % 0 mm
03:59 10.7 °C 9.2 °C 1011.1 hPa North 7.4 km/h 6.3 km/h 90 % 0 mm
04:04 10.7 °C 9.2 °C 1011.1 hPa SSW 9.7 km/h 8.5 km/h 90 % 0 mm
04:09 10.7 °C 9.2 °C 1010.7 hPa SSW 13 km/h 4.8 km/h 90 % 0 mm
04:14 10.8 °C 9.2 °C 1010.7 hPa South 7.4 km/h 5.1 km/h 90 % 0 mm
04:19 10.8 °C 9.2 °C 1010.7 hPa SSW 5.6 km/h 3.9 km/h 90 % 0 mm
04:24 10.8 °C 9.3 °C 1010.7 hPa SSW 5.6 km/h 5.5 km/h 90 % 0 mm
04:29 10.8 °C 9.2 °C 1010.7 hPa South 11.1 km/h 7.7 km/h 90 % 0 mm
04:34 10.8 °C 9.3 °C 1010.7 hPa SSW 7.4 km/h 5.1 km/h 90 % 0 mm
04:39 10.8 °C 9.3 °C 1010.4 hPa SSW 7.4 km/h 6.8 km/h 90 % 0 mm
04:44 10.8 °C 9.3 °C 1010.4 hPa SSW 7.4 km/h 5.3 km/h 90 % 0 mm
04:49 10.8 °C 9.3 °C 1010.4 hPa SSW 11.1 km/h 7.7 km/h 90 % 0 mm
04:54 10.8 °C 9.3 °C 1010.4 hPa North 11.1 km/h 5 km/h 90 % 0 mm
04:59 10.8 °C 9.3 °C 1010.4 hPa SSW 8 km/h 4.8 km/h 90 % 0 mm
05:04 10.8 °C 9.3 °C 1010.4 hPa South 8 km/h 6.4 km/h 90 % 0 mm
05:09 10.8 °C 9.3 °C 1010.4 hPa SSW 7.4 km/h 5 km/h 90 % 0 mm
05:14 10.8 °C 9.3 °C 1010.7 hPa South 7.4 km/h 7.9 km/h 90 % 0 mm
05:19 10.8 °C 9.2 °C 1010.7 hPa SSW 7.4 km/h 8.5 km/h 90 % 0 mm
05:24 10.8 °C 9.2 °C 1010.7 hPa North 11.1 km/h 4.8 km/h 90 % 0 mm
05:29 10.8 °C 9.2 °C 1010.7 hPa South 5.6 km/h 1.9 km/h 90 % 0 mm
05:34 10.7 °C 9.2 °C 1010.7 hPa South 8 km/h 5.1 km/h 90 % 0 mm
05:39 10.7 °C 9.2 °C 1010.7 hPa South 7.4 km/h 3.4 km/h 90 % 0 mm
05:44 10.7 °C 9.1 °C 1010.7 hPa North 11.1 km/h 2.4 km/h 90 % 0 mm
05:49 10.7 °C 9.3 °C 1011.1 hPa North 7.4 km/h 4.7 km/h 91 % 0 mm
05:54 10.7 °C 9.3 °C 1011.1 hPa South 7.4 km/h 4.3 km/h 91 % 0 mm
05:59 10.7 °C 9.3 °C 1011.1 hPa South 14.8 km/h 5.3 km/h 91 % 0 mm
06:04 10.7 °C 9.3 °C 1011.1 hPa South 9.3 km/h 5.6 km/h 91 % 0 mm
06:09 10.6 °C 9.2 °C 1011.1 hPa SSW 9.3 km/h 5 km/h 91 % 0 mm
06:14 10.7 °C 9.3 °C 1010.7 hPa South 9.3 km/h 5.3 km/h 91 % 0 mm
06:19 10.7 °C 9.3 °C 1011.1 hPa South 7.4 km/h 4.3 km/h 91 % 0 mm
06:24 10.6 °C 9.2 °C 1011.1 hPa South 7.4 km/h 5.6 km/h 91 % 0 mm
06:29 10.6 °C 9.2 °C 1011.1 hPa North 7.4 km/h 8.4 km/h 91 % 0 mm
06:34 10.6 °C 9.2 °C 1011.1 hPa South 7.4 km/h 6.4 km/h 91 % 0 mm
06:39 10.5 °C 9.1 °C 1011.1 hPa South 11.1 km/h 4.5 km/h 91 % 0 mm
06:44 10.5 °C 9.1 °C 1011.1 hPa South 7.4 km/h 4.8 km/h 91 % 0 mm
06:49 10.6 °C 9.2 °C 1011.1 hPa South 11.1 km/h 8.2 km/h 91 % 0 mm
06:54 10.6 °C 9.2 °C 1011.1 hPa South 9.3 km/h 6.4 km/h 91 % 0 mm
06:59 10.6 °C 9.2 °C 1011.1 hPa South 7.4 km/h 4.7 km/h 91 % 0 mm
07:04 10.5 °C 9.1 °C 1011.1 hPa South 9.3 km/h 5.1 km/h 91 % 0 mm
07:09 10.6 °C 9.3 °C 1011.1 hPa South 5.6 km/h 5.5 km/h 92 % 0 mm
07:14 10.7 °C 9.3 °C 1011.1 hPa South 9.3 km/h 7.1 km/h 91 % 0 mm
07:19 10.7 °C 9.3 °C 1011.1 hPa South 13 km/h 7.7 km/h 91 % 0 mm
07:24 10.6 °C 9.2 °C 1011.1 hPa South 14.8 km/h 8.5 km/h 91 % 0 mm
07:29 10.7 °C 9.3 °C 1011.1 hPa South 14.8 km/h 8.7 km/h 91 % 0 mm
07:34 10.8 °C 9.6 °C 1011.1 hPa South 8 km/h 6.8 km/h 92 % 0 mm
07:39 10.9 °C 9.5 °C 1011.4 hPa South 8 km/h 6.4 km/h 91 % 0 mm
07:44 10.9 °C 9.5 °C 1011.4 hPa North 16.7 km/h 7.1 km/h 91 % 0 mm
07:49 10.9 °C 9.5 °C 1011.7 hPa South 18.5 km/h 10.3 km/h 91 % 0 mm
07:54 10.9 °C 9.3 °C 1011.7 hPa South 11.1 km/h 6 km/h 90 % 0 mm
07:59 11 °C 9.6 °C 1011.7 hPa South 13 km/h 8.7 km/h 91 % 0 mm
08:04 11.1 °C 9.6 °C 1011.7 hPa South 13 km/h 7.2 km/h 90 % 0 mm
08:09 11.3 °C 9.9 °C 1011.7 hPa South 9.3 km/h 7.6 km/h 91 % 0 mm
08:14 11.4 °C 9.8 °C 1011.7 hPa South 7.4 km/h 4 km/h 90 % 0 mm
08:19 11.6 °C 9.8 °C 1011.7 hPa South 9.3 km/h 6.6 km/h 89 % 0 mm
08:24 11.6 °C 9.6 °C 1011.7 hPa South 9.3 km/h 7.1 km/h 88 % 0 mm
08:29 11.7 °C 9.8 °C 1011.7 hPa South 12.9 km/h 7.7 km/h 88 % 0 mm
08:34 11.8 °C 9.7 °C 1011.7 hPa South 13 km/h 6.8 km/h 87 % 0 mm
08:39 11.9 °C 9.8 °C 1011.7 hPa South 8 km/h 7.6 km/h 87 % 0 mm
08:44 11.9 °C 9.7 °C 1011.7 hPa South 14.8 km/h 14.8 km/h 86 % 0 mm
08:49 12.1 °C 9.8 °C 1011.7 hPa South 9.3 km/h 6 km/h 86 % 0 mm
08:54 12.2 °C 9.7 °C 1011.7 hPa South 5.6 km/h 3.7 km/h 85 % 0 mm
08:59 12.3 °C 9.8 °C 1011.7 hPa South 9.7 km/h 7.9 km/h 85 % 0 mm
09:04 12.5 °C 10.1 °C 1011.7 hPa South 11.3 km/h 0.8 km/h 85 % 0 mm
09:09 12.9 °C 10.2 °C 1011.7 hPa South 11.1 km/h 9.3 km/h 84 % 0 mm
09:14 12.9 °C 9.9 °C 1011.7 hPa South 9.3 km/h 8 km/h 82 % 0 mm
09:19 13 °C 10 °C 1011.7 hPa South 7.4 km/h 8.5 km/h 82 % 0 mm
09:24 13 °C 9.8 °C 1011.7 hPa South 9.3 km/h 4.7 km/h 81 % 0 mm
09:29 13 °C 9.8 °C 1011.7 hPa South 9.3 km/h 6 km/h 81 % 0 mm
09:34 13.1 °C 9.9 °C 1011.7 hPa South 7.4 km/h 6.6 km/h 81 % 0 mm
09:39 13.2 °C 9.8 °C 1011.7 hPa South 5.6 km/h 3.9 km/h 80 % 0 mm
09:44 13.4 °C 10 °C 1011.7 hPa South 3.7 km/h 3.1 km/h 80 % 0 mm
09:49 13.8 °C 10.2 °C 1011.7 hPa South 9.3 km/h 1.9 km/h 79 % 0 mm
09:54 14.1 °C 10.1 °C 1011.7 hPa South 14.8 km/h 8.5 km/h 77 % 0 mm
09:59 14.7 °C 10.3 °C 1011.7 hPa South 12.9 km/h 12.1 km/h 75 % 0 mm
10:04 14.4 °C 9.9 °C 1012.1 hPa South 14.8 km/h 10.1 km/h 74 % 0 mm
10:09 14.4 °C 10.3 °C 1011.7 hPa North 9.3 km/h 5.6 km/h 76 % 0 mm
10:14 14.4 °C 9.9 °C 1011.7 hPa SSW 18.5 km/h 11.1 km/h 74 % 0 mm
10:19 14.5 °C 9.7 °C 1011.7 hPa SSW 14.5 km/h 9.7 km/h 73 % 0 mm
10:24 14.8 °C 10 °C 1011.7 hPa SSW 14.8 km/h 10.6 km/h 73 % 0 mm
10:29 15.3 °C 9.6 °C 1011.4 hPa SSW 14.8 km/h 12.6 km/h 69 % 0 mm
10:34 14.9 °C 9.3 °C 1011.4 hPa SSW 13 km/h 7.7 km/h 69 % 0 mm
10:39 15 °C 9.6 °C 1011.4 hPa SSW 11.1 km/h 6.1 km/h 70 % 0 mm
10:44 15.5 °C 9.6 °C 1011.4 hPa SSW 14.5 km/h 12.1 km/h 68 % 0 mm
10:49 15.4 °C 8.8 °C 1011.4 hPa SW 13 km/h 4.5 km/h 65 % 0 mm
10:54 15.6 °C 9.3 °C 1011.4 hPa SW 5.6 km/h 5.3 km/h 66 % 0 mm
10:59 16.1 °C 9 °C 1011.4 hPa North 18.5 km/h 12.4 km/h 63 % 0 mm
11:04 16.4 °C 9.1 °C 1011.4 hPa WSW 22.2 km/h 12.4 km/h 62 % 0 mm
11:09 16.3 °C 9.1 °C 1011.4 hPa SW 18.5 km/h 12.9 km/h 62 % 0 mm
11:14 16.4 °C 9.1 °C 1011.4 hPa SW 13 km/h 13.2 km/h 62 % 0 mm
11:19 16.1 °C 8.8 °C 1011.4 hPa SW 16.1 km/h 11.7 km/h 62 % 0 mm
11:24 16.2 °C 8.9 °C 1011.7 hPa WSW 18.5 km/h 15.9 km/h 62 % 0 mm
11:29 15.9 °C 8.7 °C 1011.7 hPa SSW 18.5 km/h 9.3 km/h 62 % 0 mm
11:34 15.9 °C 8.2 °C 1011.7 hPa WSW 18.5 km/h 15.8 km/h 60 % 0 mm
11:39 16.2 °C 8.2 °C 1011.7 hPa SW 20.9 km/h 15.8 km/h 59 % 0 mm
11:44 16.4 °C 8.3 °C 1011.7 hPa SSW 16.7 km/h 10.5 km/h 59 % 0 mm
11:49 16.4 °C 8.3 °C 1011.7 hPa SSW 29.6 km/h 16.9 km/h 59 % 0 mm
11:54 16.2 °C 8.7 °C 1011.7 hPa South 13 km/h 11.7 km/h 61 % 0 mm
11:59 16.2 °C 8.4 °C 1011.7 hPa SW 20.4 km/h 8 km/h 60 % 0 mm
12:04 16.3 °C 8.1 °C 1011.7 hPa SSW 13 km/h 10.8 km/h 58 % 0 mm
12:09 16.4 °C 7.9 °C 1011.7 hPa SW 11.1 km/h 7.9 km/h 57 % 0 mm
12:14 16.9 °C 8.1 °C 1011.7 hPa North 16.7 km/h 11.6 km/h 56 % 0 mm
12:19 17.2 °C 7.8 °C 1011.7 hPa WSW 14.8 km/h 10.8 km/h 54 % 0 mm
12:24 17.3 °C 8.2 °C 1011.7 hPa West 18.5 km/h 11.4 km/h 55 % 0 mm
12:29 17.2 °C 7.8 °C 1011.7 hPa SW 16.7 km/h 7.2 km/h 54 % 0 mm
12:34 17.2 °C 7.8 °C 1011.7 hPa North 18.5 km/h 12.7 km/h 54 % 0 mm
12:39 17.3 °C 7.9 °C 1011.4 hPa WSW 13 km/h 9.7 km/h 54 % 0 mm
12:44 17.4 °C 8.3 °C 1011.4 hPa West 13 km/h 11.6 km/h 55 % 0 mm
12:49 17.6 °C 8.2 °C 1011.7 hPa WNW 16.7 km/h 17.5 km/h 54 % 0 mm
12:54 18 °C 8.6 °C 1011.4 hPa West 16.7 km/h 8.4 km/h 54 % 0 mm
12:59 17.9 °C 7.6 °C 1011.4 hPa SSW 22.2 km/h 9.2 km/h 51 % 0 mm
13:04 17.7 °C 7.7 °C 1011.4 hPa North 22.2 km/h 18.5 km/h 52 % 0 mm
13:09 17.2 °C 7.3 °C 1011.4 hPa South 18.5 km/h 14.6 km/h 52 % 0 mm
13:14 17.4 °C 7.7 °C 1011.1 hPa SSW 14.8 km/h 16.6 km/h 53 % 0 mm
13:19 17.7 °C 7.4 °C 1011.1 hPa SW 18.5 km/h 10.6 km/h 51 % 0 mm
13:24 17.6 °C 7.3 °C 1011.1 hPa SSW 16.7 km/h 9.8 km/h 51 % 0 mm
13:29 17.8 °C 6.9 °C 1011.1 hPa SW 22.2 km/h 14.8 km/h 49 % 0 mm
13:34 17.8 °C 6.6 °C 1011.1 hPa WSW 20.9 km/h 6.4 km/h 48 % 0 mm
13:39 18.3 °C 7.1 °C 1010.7 hPa West 22.2 km/h 17.1 km/h 48 % 0 mm
13:44 18.7 °C 7.5 °C 1010.7 hPa SSW 22.5 km/h 14.6 km/h 48 % 0 mm
13:49 19.1 °C 7.5 °C 1010.7 hPa South 16.7 km/h 12.1 km/h 47 % 0 mm
13:54 19.1 °C 7.5 °C 1011.1 hPa SSW 17.7 km/h 11.9 km/h 47 % 0 mm
13:59 18.6 °C 7.1 °C 1010.7 hPa SSW 13 km/h 6.4 km/h 47 % 0 mm
14:04 18.9 °C 7 °C 1010.7 hPa SW 16.7 km/h 11.9 km/h 46 % 0 mm
14:09 18.9 °C 7.6 °C 1010.7 hPa South 18.5 km/h 14 km/h 48 % 0 mm
14:14 19.3 °C 8.3 °C 1010.7 hPa SSW 13 km/h 9.5 km/h 49 % 0 mm
14:19 19.2 °C 7.3 °C 1010.7 hPa SSW 22.2 km/h 12.9 km/h 46 % 0 mm
14:24 18.8 °C 6.9 °C 1010.7 hPa SW 18.5 km/h 8.5 km/h 46 % 0 mm
14:29 19.1 °C 7.5 °C 1010.7 hPa WSW 18.5 km/h 10.5 km/h 47 % 0 mm
14:34 19.3 °C 7.4 °C 1010.7 hPa SSW 18.5 km/h 16.3 km/h 46 % 0 mm
14:39 19 °C 7.1 °C 1010.7 hPa South 16.7 km/h 10.6 km/h 46 % 0 mm
14:44 19.2 °C 7.3 °C 1010.7 hPa WSW 27.8 km/h 17.1 km/h 46 % 0 mm
14:49 19.2 °C 7.3 °C 1010.7 hPa SSW 11.3 km/h 8.9 km/h 46 % 0 mm
14:54 19.2 °C 7.3 °C 1010.7 hPa SW 22.2 km/h 19.6 km/h 46 % 0 mm
14:59 19.1 °C 7.2 °C 1010.7 hPa West 16.1 km/h 10.3 km/h 46 % 0 mm
15:04 19.8 °C 7.5 °C 1010.7 hPa SSW 22.5 km/h 16.1 km/h 45 % 0 mm
15:09 19.3 °C 7.1 °C 1010.7 hPa West 18.5 km/h 14.3 km/h 45 % 0 mm
15:14 19.6 °C 7.7 °C 1010.7 hPa SW 22.5 km/h 14.3 km/h 46 % 0 mm
15:19 19.2 °C 7 °C 1010.7 hPa SW 31.5 km/h 17.7 km/h 45 % 0 mm
15:24 19.1 °C 7.5 °C 1010.7 hPa North 18.5 km/h 13.4 km/h 47 % 0 mm
15:29 19.1 °C 6.9 °C 1010.7 hPa SW 18.5 km/h 9.7 km/h 45 % 0 mm
15:34 18.9 °C 7 °C 1010.7 hPa SW 27.8 km/h 18 km/h 46 % 0 mm
15:39 18.9 °C 7.7 °C 1010.7 hPa South 25.9 km/h 13.7 km/h 48 % 0 mm
15:44 19.3 °C 7.4 °C 1010.7 hPa SSW 22.2 km/h 12.9 km/h 46 % 0 mm
15:49 19.4 °C 7.8 °C 1010.7 hPa SW 31.5 km/h 18.5 km/h 47 % 0 mm
15:54 19.3 °C 7.4 °C 1010.7 hPa WSW 18.5 km/h 12.4 km/h 46 % 0 mm
15:59 19.6 °C 7.6 °C 1010.7 hPa SSW 22.2 km/h 21.2 km/h 46 % 0 mm
16:04 19.4 °C 7.5 °C 1010.7 hPa SSW 20.4 km/h 11.4 km/h 46 % 0 mm
16:09 19.3 °C 7.7 °C 1010.7 hPa South 25.9 km/h 17.4 km/h 47 % 0 mm
16:14 19.1 °C 7.5 °C 1011.1 hPa SW 25.9 km/h 19 km/h 47 % 0 mm
16:19 18.9 °C 7.6 °C 1011.1 hPa North 24.1 km/h 19.3 km/h 48 % 0 mm
16:24 18.7 °C 7.4 °C 1011.1 hPa SSW 24.1 km/h 13.4 km/h 48 % 0 mm
16:29 18.6 °C 7.4 °C 1011.1 hPa WSW 18.5 km/h 12.1 km/h 48 % 0 mm
16:34 18.4 °C 7.2 °C 1011.1 hPa SSW 31.5 km/h 20.3 km/h 48 % 0 mm
16:39 18.4 °C 7.5 °C 1011.1 hPa South 22.2 km/h 17.2 km/h 49 % 0 mm
16:44 19.2 °C 7.6 °C 1011.1 hPa SW 22.5 km/h 21.1 km/h 47 % 0 mm
16:49 19.3 °C 7.7 °C 1011.1 hPa SSW 25.7 km/h 19 km/h 47 % 0 mm
16:54 18.9 °C 7.7 °C 1011.1 hPa SSW 31.5 km/h 24 km/h 48 % 0 mm
16:59 18.9 °C 7.7 °C 1011.1 hPa South 27.4 km/h 21.6 km/h 48 % 0 mm
17:04 18.8 °C 7.6 °C 1011.1 hPa SSW 25.9 km/h 11.4 km/h 48 % 0 mm
17:09 18.7 °C 7.7 °C 1011.1 hPa SSW 24.1 km/h 18.5 km/h 49 % 0 mm
17:14 18.7 °C 7.7 °C 1011.1 hPa South 18.5 km/h 12.4 km/h 49 % 0 mm
17:19 18.8 °C 7.9 °C 1011.1 hPa SW 25.9 km/h 16.7 km/h 49 % 0 mm
17:24 18.5 °C 7.3 °C 1011.1 hPa SSW 22.2 km/h 14.5 km/h 48 % 0 mm
17:29 18.6 °C 7.4 °C 1011.1 hPa South 27.8 km/h 14.8 km/h 48 % 0 mm
17:34 18.6 °C 7.4 °C 1011.1 hPa SSW 24.1 km/h 14 km/h 48 % 0 mm
17:39 18.6 °C 7.7 °C 1011.1 hPa WSW 20.9 km/h 17.5 km/h 49 % 0 mm
17:44 18.6 °C 7 °C 1011.1 hPa SW 14.8 km/h 12.2 km/h 47 % 0 mm
17:49 18.5 °C 6.9 °C 1011.1 hPa SSW 22.2 km/h 14 km/h 47 % 0 mm
17:54 18.6 °C 6.8 °C 1010.7 hPa SSW 27.8 km/h 11.7 km/h 46 % 0 mm
17:59 18.6 °C 7.1 °C 1011.1 hPa SSW 22.2 km/h 16.3 km/h 47 % 0 mm
18:04 18.7 °C 7.4 °C 1011.1 hPa SSW 22.2 km/h 16.7 km/h 48 % 0 mm
18:09 18.6 °C 7.3 °C 1010.7 hPa South 17.7 km/h 12.9 km/h 48 % 0 mm
18:14 18.2 °C 6.9 °C 1010.7 hPa South 22.2 km/h 11.6 km/h 48 % 0 mm
18:19 18 °C 7.1 °C 1010.7 hPa South 16.7 km/h 10.8 km/h 49 % 0 mm
18:24 18.3 °C 7.1 °C 1010.7 hPa South 18.5 km/h 10.9 km/h 48 % 0 mm
18:29 18.4 °C 7.2 °C 1010.7 hPa South 11.3 km/h 13.2 km/h 48 % 0 mm
18:34 18.2 °C 7 °C 1010.7 hPa South 11.1 km/h 8.7 km/h 48 % 0 mm
18:39 18 °C 6.8 °C 1010.7 hPa SSW 18.5 km/h 10 km/h 48 % 0 mm
18:44 18.1 °C 6.9 °C 1011.1 hPa SSW 24.1 km/h 18.3 km/h 48 % 0 mm
18:49 18.3 °C 6.8 °C 1011.1 hPa SSW 22.2 km/h 17.1 km/h 47 % 0 mm
18:54 18.4 °C 7.2 °C 1011.1 hPa SW 16.7 km/h 13.5 km/h 48 % 0 mm
18:59 18.4 °C 6.9 °C 1011.1 hPa SSW 13 km/h 9.8 km/h 47 % 0 mm
19:04 18.2 °C 6.9 °C 1011.1 hPa SW 16.7 km/h 6.9 km/h 48 % 0 mm
19:09 18.1 °C 7.2 °C 1011.1 hPa SW 11.1 km/h 7.6 km/h 49 % 0 mm
19:14 18.2 °C 7 °C 1011.1 hPa SW 13 km/h 8.2 km/h 48 % 0 mm
19:19 18.2 °C 6.9 °C 1011.1 hPa SSW 16.7 km/h 9.8 km/h 48 % 0 mm
19:24 18.2 °C 7.3 °C 1011.1 hPa SW 18.5 km/h 5.6 km/h 49 % 0 mm
19:29 18.2 °C 7 °C 1011.1 hPa SW 11.3 km/h 9 km/h 48 % 0 mm
19:34 18.3 °C 7.1 °C 1011.1 hPa SW 18.5 km/h 11.4 km/h 48 % 0 mm
19:39 18.2 °C 6.9 °C 1011.4 hPa SW 24.1 km/h 9.5 km/h 48 % 0 mm
19:44 18.1 °C 7.2 °C 1011.4 hPa SSW 24.1 km/h 12.1 km/h 49 % 0 mm
19:49 18 °C 7.1 °C 1011.4 hPa SSW 13 km/h 8.2 km/h 49 % 0 mm
19:54 18.1 °C 7.2 °C 1011.4 hPa SSW 9.7 km/h 4.2 km/h 49 % 0 mm
19:59 18.1 °C 7.2 °C 1011.4 hPa SSW 11.3 km/h 7.4 km/h 49 % 0 mm
20:04 17.9 °C 7 °C 1011.4 hPa SSW 16.7 km/h 10.5 km/h 49 % 0 mm
20:09 17.7 °C 7.2 °C 1011.4 hPa SSW 11.1 km/h 6.8 km/h 50 % 0 mm
20:14 17.5 °C 6.9 °C 1011.4 hPa SSW 11.1 km/h 5.6 km/h 50 % 0 mm
20:19 17.3 °C 7.1 °C 1011.4 hPa SSW 14.8 km/h 10 km/h 51 % 0 mm
20:24 17.2 °C 6.9 °C 1011.4 hPa SSW 7.4 km/h 5.6 km/h 51 % 0 mm
20:29 17.1 °C 7.1 °C 1011.4 hPa SSW 7.4 km/h 3.4 km/h 52 % 0 mm
20:34 16.9 °C 6.9 °C 1011.4 hPa SSW 5.6 km/h 3.9 km/h 52 % 0 mm
20:39 16.7 °C 7.1 °C 1011.4 hPa SSW 5.6 km/h 3.2 km/h 53 % 0 mm
20:44 16.6 °C 7.3 °C 1011.4 hPa SSW 3.7 km/h 0.2 km/h 54 % 0 mm
20:49 16.4 °C 7.1 °C 1011.4 hPa SSW 5.6 km/h 1 km/h 54 % 0 mm
20:54 16.2 °C 6.9 °C 1011.4 hPa SSW 1.9 km/h   54 % 0 mm
20:59 16.1 °C 7 °C 1011.4 hPa North 1.9 km/h   55 % 0 mm
21:04 15.8 °C 7.1 °C 1011.4 hPa Calm     56 % 0 mm
21:09 15.6 °C 7.1 °C 1011.4 hPa Calm     57 % 0 mm
21:14 15.3 °C 7.1 °C 1011.4 hPa Calm     58 % 0 mm
21:19 14.9 °C 7 °C 1011.4 hPa Calm     59 % 0 mm
21:24 14.6 °C 6.9 °C 1011.4 hPa Calm     60 % 0 mm
21:29 14.3 °C 6.8 °C 1011.4 hPa Calm     61 % 0 mm
21:34 13.9 °C 6.8 °C 1011.4 hPa Calm     62 % 0 mm
21:39 13.6 °C 6.9 °C 1011.4 hPa Calm     64 % 0 mm
21:44 13.4 °C 6.9 °C 1011.4 hPa Calm     65 % 0 mm
21:49 13.1 °C 7.1 °C 1011.4 hPa Calm     67 % 0 mm
21:54 12.9 °C 7.3 °C 1011.4 hPa Calm     69 % 0 mm
21:59 12.7 °C 7.1 °C 1011.4 hPa SSW 5.6 km/h 3.4 km/h 69 % 0 mm
22:04 12.8 °C 7.5 °C 1011.4 hPa SSW 9.3 km/h 6.1 km/h 70 % 0 mm
22:09 13.2 °C 7.8 °C 1011.7 hPa SSW 5.6 km/h 2.4 km/h 70 % 0 mm
22:14 13.4 °C 8 °C 1011.7 hPa SSW 5.6 km/h 4.5 km/h 70 % 0 mm
22:19 13.4 °C 7.9 °C 1011.7 hPa SSW 7.4 km/h 7.6 km/h 69 % 0 mm
22:24 13.4 °C 8 °C 1011.7 hPa SSW 7.4 km/h 4.2 km/h 70 % 0 mm
22:29 13.3 °C 8.1 °C 1011.7 hPa SSW 7.4 km/h 2.6 km/h 71 % 0 mm
22:34 13.2 °C 8.3 °C 1011.7 hPa SSW 5.6 km/h 2.1 km/h 72 % 0 mm
22:39 13.1 °C 8.4 °C 1011.7 hPa North 4.8 km/h 1.6 km/h 73 % 0 mm
22:44 13.1 °C 8.3 °C 1011.7 hPa SSW 5.6 km/h 2.6 km/h 73 % 0 mm
22:49 13 °C 8.4 °C 1011.7 hPa SSW 3.7 km/h 1 km/h 74 % 0 mm
22:54 12.9 °C 8.6 °C 1011.7 hPa SSW 5.6 km/h 4.5 km/h 75 % 0 mm
22:59 12.8 °C 8.5 °C 1011.4 hPa SSW 3.7 km/h 0.3 km/h 75 % 0 mm
23:04 12.7 °C 8.6 °C 1011.4 hPa SSW 4.8 km/h 4.3 km/h 76 % 0 mm
23:09 12.5 °C 8.6 °C 1011.4 hPa SSW 3.7 km/h 1.8 km/h 77 % 0 mm
23:14 12.4 °C 8.7 °C 1011.4 hPa SSW 5.6 km/h 1 km/h 78 % 0 mm
23:19 12.2 °C 8.5 °C 1011.4 hPa SSW 4.8 km/h 2.1 km/h 78 % 0 mm
23:24 12.1 °C 8.8 °C 1011.4 hPa SSW 6.4 km/h 3.4 km/h 80 % 0 mm
23:29 12 °C 8.8 °C 1011.1 hPa SSW 5.6 km/h 2.4 km/h 81 % 0 mm
23:34 11.9 °C 8.8 °C 1011.1 hPa SSW 3.2 km/h 1.8 km/h 81 % 0 mm
23:39 11.8 °C 8.8 °C 1011.1 hPa SSW 5.6 km/h 3.4 km/h 82 % 0 mm
23:44 11.7 °C 8.7 °C 1011.1 hPa SSW 5.6 km/h 1.9 km/h 82 % 0 mm
23:49 11.7 °C 8.9 °C 1011.1 hPa SSW 3.7 km/h 1.3 km/h 83 % 0 mm
23:54 11.6 °C 8.8 °C 1010.7 hPa Calm     83 % 0 mm
23:59 11.4 °C 8.6 °C 1010.7 hPa Calm     83 % 0 mm
Ararat Weather
Compliments of Weather Underground - 2.25 mb
Click here to send mail.


ABOUT

Live weather data from Ararat, Victoria, Australia, 3377
Data uploaded from Cumulus every 5 minutes to Weather Underground.
This site then downloads the raw data for formatting and display.
Metric and imperial data can be displayed. Graphs and historical data available.
Includes Sun and Moon times and rain image live from BOM.

Check out Ararat Weather on Facebook, Twitter and Google +

Help support ongoing costs by checking out the ads





Follow @AraratWeather